Back to catalog

STARLINK-34770

AliveCommunicationsVLEO
NORAD 65036·PAYLOAD·🇺🇸 United States

Launched Jul 30, 2025 from Cape Canaveral Space Force Station

Loading…

Next Passes (next 24 hours)

TLE

FreshSource: CelesTrak SupGP

Epoch: Sep 15, 2026, 02:39 UTC

1 65036C 25161X   26258.11090278  .00041549  00000+0  12278-2 0  2588
2 65036  53.1577 132.8316 0001274  84.9329 238.9972 15.34364020    12

Track STARLINK-34770 in real time with AllMySat

Download on the App Store